Weather History for KMCD - March, 2013

Change the Weather History Date:

Tuesday, March 5, 2013

  Actual Average Record
Temperature  
Mean Temperature 22 °F -  
Max Temperature 27 °F 26 °F 44 °F (2009)
Min Temperature 16 °F 13 °F -7 °F (2015)
Degree Days  
Heating Degree Days 44    
Moisture  
Dew Point 15 °F    
Average Humidity 73    
Maximum Humidity 86    
Minimum Humidity 66    
Precipitation  
Precipitation 0.00 in - - ()
Sea Level Pressure  
Sea Level Pressure 30.09 in    
Wind  
Wind Speed 8 mph (ENE)    
Max Wind Speed 15 mph    
Max Gust Speed 21 mph    
Visibility 10 miles    
Events      
Averages and records for this station are not official NWS values.
T = Trace of Precipitation, MM = Missing Value Source: NWS Daily Summary

Daily Weather History Graph

Daily Weather History Graph

Search for Another Location

Airport or City:

Trip Planner

Search our weather history database for the weather conditions in past years. The results will help you decide how hot, cold, wet, or windy it might be!

Date:

Astronomy

Mar. 05, 2013 Rise Set
Actual Time 7:09 AM EST 6:31 PM EST
Civil Twilight 6:39 AM EST 7:00 PM EST
Nautical Twilight 6:05 AM EST 7:35 PM EST
Astronomical Twilight 5:30 AM EST 8:10 PM EST
Moon 2:34 AM EST (3/5) 11:55 AM EST (3/5)
Length of Visible Light 12h 21m
Length of Day
11h 21m
Last Quarter, 41% of the Moon is Illuminated
Mar 5
Last Quarter
Mar 11
New
Mar 19
First Quarter
Mar 27
Full
Apr 3
Last Quarter

Hourly Weather History & Observations

Time (EST) Temp. Windchill Dew Point Humidity Pressure Visibility Wind Dir Wind Speed Gust Speed Precip Events Conditions
12:13 AM 20.1 °F 12.3 °F 14.5 °F 79% 30.13 in 10.0 mi NNE 5.8 mph - N/A   Clear
12:33 AM 19.0 °F - 14.0 °F 81% 30.14 in 10.0 mi Calm Calm - N/A   Clear
12:53 AM 18.0 °F 12.7 °F 14.4 °F 86% 30.14 in 10.0 mi NE 3.5 mph - N/A   Clear
1:33 AM 19.6 °F 9.7 °F 13.8 °F 78% 30.15 in 10.0 mi NE 8.1 mph - N/A   Clear
1:53 AM 21.0 °F 10.6 °F 12.9 °F 71% 30.14 in 10.0 mi ENE 9.2 mph - N/A   Clear
2:13 AM 20.8 °F 9.7 °F 12.7 °F 71% 30.15 in 10.0 mi ENE 10.4 mph - N/A   Clear
2:33 AM 21.0 °F 10.6 °F 12.4 °F 69% 30.15 in 10.0 mi ENE 9.2 mph - N/A   Clear
2:53 AM 20.3 °F 9.8 °F 12.2 °F 71% 30.15 in 10.0 mi ENE 9.2 mph - N/A   Clear
3:13 AM 20.3 °F 9.8 °F 12.2 °F 71% 30.14 in 10.0 mi ENE 9.2 mph - N/A   Clear
4:13 AM 19.2 °F 11.3 °F 12.2 °F 74% 30.15 in 10.0 mi NE 5.8 mph - N/A   Clear
4:33 AM 18.0 °F 7.7 °F 12.2 °F 78% 30.15 in 10.0 mi NE 8.1 mph - N/A   Clear
4:53 AM 17.6 °F 5.7 °F 12.4 °F 80% 30.14 in 10.0 mi ENE 10.4 mph - N/A   Clear
5:13 AM 17.6 °F 7.3 °F 12.2 °F 79% 30.14 in 10.0 mi ENE 8.1 mph - N/A   Clear
5:53 AM 17.8 °F 8.5 °F 11.3 °F 76% 30.14 in 10.0 mi ENE 6.9 mph - N/A   Clear
6:14 AM 17.6 °F 7.3 °F 11.7 °F 78% 30.13 in 10.0 mi ENE 8.1 mph - N/A   Clear
6:33 AM 17.6 °F 5.0 °F 11.3 °F 76% 30.13 in 10.0 mi NE 11.5 mph - N/A   Clear
6:53 AM 17.1 °F 4.3 °F 11.3 °F 78% 30.13 in 10.0 mi NE 11.5 mph - N/A   Clear
7:14 AM 16.7 °F 2.6 °F 11.1 °F 79% 30.12 in 10.0 mi NE 13.8 mph - N/A   Clear
7:53 AM 17.4 °F 3.5 °F 11.3 °F 77% 30.13 in 10.0 mi ENE 13.8 mph - N/A   Clear
8:14 AM 18.1 °F 3.9 °F 11.3 °F 75% 30.13 in 10.0 mi ENE 15.0 mph - N/A   Clear
8:33 AM 18.5 °F 4.3 °F 11.3 °F 73% 30.13 in 10.0 mi ENE 15.0 mph - N/A   Clear
8:53 AM 18.5 °F 4.9 °F 11.3 °F 73% 30.13 in 10.0 mi ENE 13.8 mph - N/A   Clear
9:14 AM 19.0 °F 7.5 °F 11.7 °F 73% 30.13 in 10.0 mi ENE 10.4 mph 18.4 mph N/A   Clear
9:33 AM 18.7 °F 7.8 °F 12.4 °F 76% 30.12 in 10.0 mi ENE 9.2 mph - N/A   Mostly Cloudy
9:53 AM 19.6 °F 8.9 °F 12.9 °F 75% 30.12 in 10.0 mi ENE 9.2 mph 19.6 mph N/A   Overcast
10:13 AM 19.4 °F 7.2 °F 13.1 °F 76% 30.12 in 10.0 mi East 11.5 mph 18.4 mph N/A   Overcast
10:53 AM 20.8 °F 10.4 °F 14.0 °F 75% 30.10 in 10.0 mi East 9.2 mph 18.4 mph N/A   Overcast
11:13 AM 21.0 °F 11.4 °F 14.4 °F 75% 30.09 in 10.0 mi East 8.1 mph 18.4 mph N/A   Overcast
11:33 AM 22.1 °F 12.0 °F 14.9 °F 74% 30.09 in 10.0 mi East 9.2 mph - N/A   Overcast
11:53 AM 22.1 °F 11.3 °F 14.9 °F 74% 30.08 in 10.0 mi East 10.4 mph 17.3 mph N/A   Overcast
12:13 PM 22.5 °F 9.9 °F 14.9 °F 73% 30.09 in 10.0 mi East 13.8 mph 20.7 mph N/A   Overcast
12:33 PM 22.6 °F 11.3 °F 14.9 °F 72% 30.09 in 10.0 mi East 11.5 mph 19.6 mph N/A   Overcast
12:53 PM 22.8 °F 12.2 °F 14.7 °F 71% 30.09 in 10.0 mi East 10.4 mph 17.3 mph N/A   Overcast
1:13 PM 22.1 °F 13.7 °F 14.0 °F 71% 30.08 in 10.0 mi East 6.9 mph 19.6 mph N/A   Overcast
1:33 PM 22.3 °F 13.0 °F 14.2 °F 71% 30.08 in 10.0 mi East 8.1 mph - N/A   Overcast
1:53 PM 23.2 °F 16.0 °F 14.5 °F 70% 30.07 in 10.0 mi East 5.8 mph - N/A   Scattered Clouds
2:13 PM 23.5 °F 13.7 °F 14.7 °F 69% 30.07 in 10.0 mi East 9.2 mph 16.1 mph N/A   Clear
2:33 PM 23.9 °F 15.0 °F 14.5 °F 67% 30.06 in 10.0 mi East 8.1 mph - N/A   Clear
2:54 PM 23.9 °F 13.5 °F 14.9 °F 69% 30.05 in 10.0 mi East 10.4 mph 17.3 mph N/A   Clear
3:13 PM 24.6 °F 15.1 °F 14.9 °F 67% 30.05 in 10.0 mi East 9.2 mph - N/A   Clear
3:33 PM 24.8 °F 16.1 °F 14.9 °F 66% 30.05 in 10.0 mi East 8.1 mph - N/A   Clear
3:53 PM 25.0 °F 15.5 °F 15.4 °F 67% 30.04 in 10.0 mi East 9.2 mph 17.3 mph N/A   Clear
4:13 PM 24.8 °F 19.1 °F 15.3 °F 67% 30.04 in 10.0 mi ESE 4.6 mph - N/A   Clear
4:33 PM 24.8 °F 16.9 °F 15.8 °F 69% 30.04 in 10.0 mi East 6.9 mph - N/A   Clear
4:53 PM 25.0 °F 18.1 °F 15.8 °F 68% 30.03 in 10.0 mi East 5.8 mph - N/A   Clear
5:14 PM 24.8 °F 17.9 °F 15.8 °F 69% 30.03 in 10.0 mi ESE 5.8 mph - N/A   Mostly Cloudy
5:33 PM 24.8 °F 17.9 °F 16.5 °F 71% 30.03 in 10.0 mi ESE 5.8 mph - N/A   Overcast
5:53 PM 25.2 °F 20.9 °F 17.1 °F 71% 30.03 in 10.0 mi ESE 3.5 mph - N/A   Overcast
6:14 PM 25.2 °F 20.9 °F 17.4 °F 72% 30.03 in 10.0 mi ESE 3.5 mph - N/A   Overcast
6:33 PM 25.2 °F 19.5 °F 17.2 °F 72% 30.04 in 10.0 mi SE 4.6 mph - N/A   Overcast
6:53 PM 25.3 °F 21.1 °F 17.6 °F 72% 30.04 in 10.0 mi East 3.5 mph - N/A   Overcast
7:14 PM 25.5 °F 21.3 °F 18.1 °F 74% 30.04 in 10.0 mi East 3.5 mph - N/A   Overcast
7:33 PM 25.5 °F - 18.5 °F 75% 30.04 in 10.0 mi Calm Calm - N/A   Overcast
7:53 PM 25.5 °F 21.3 °F 18.7 °F 75% 30.05 in 10.0 mi NNE 3.5 mph - N/A   Overcast
8:14 PM 25.5 °F 21.3 °F 19.4 °F 78% 30.05 in 10.0 mi NNE 3.5 mph - N/A   Overcast
8:33 PM 25.5 °F 21.3 °F 19.4 °F 78% 30.05 in 10.0 mi NNE 3.5 mph - N/A   Overcast
8:53 PM 26.2 °F 19.6 °F 19.2 °F 75% 30.05 in 10.0 mi NNE 5.8 mph - N/A   Overcast
9:14 PM 26.4 °F 22.4 °F 18.3 °F 71% 30.06 in 10.0 mi NNE 3.5 mph - N/A   Overcast
9:33 PM 26.4 °F 20.9 °F 18.5 °F 72% 30.07 in 10.0 mi North 4.6 mph - N/A   Overcast
9:53 PM 26.6 °F 21.2 °F 18.0 °F 70% 30.07 in 10.0 mi NNE 4.6 mph - N/A   Overcast
10:13 PM 26.6 °F 20.0 °F 18.1 °F 70% 30.07 in 10.0 mi NNE 5.8 mph - N/A   Overcast
10:33 PM 26.6 °F 21.2 °F 18.7 °F 72% 30.08 in 10.0 mi NNE 4.6 mph - N/A   Overcast
10:53 PM 27.0 °F 20.5 °F 19.4 °F 73% 30.08 in 10.0 mi NNE 5.8 mph - N/A   Overcast
11:13 PM 27.0 °F 19.5 °F 19.4 °F 73% 30.08 in 10.0 mi NE 6.9 mph - N/A   Overcast
11:33 PM 27.1 °F 18.9 °F 19.9 °F 74% 30.08 in 10.0 mi NE 8.1 mph - N/A   Overcast
11:53 PM 27.7 °F 19.6 °F 20.8 °F 75% 30.08 in 10.0 mi NE 8.1 mph - N/A   Overcast